owner,sensor,date,latitude,longitude,vertical_datum,sea_water_practical_salinity,qcFlag 
DISL,ioos:station:DISL:CATA:1,2010-02-01T00:00:00Z,30.3085,-88.1395,2.365,5.26,1111122 
DISL,ioos:station:DISL:CATA:1,2010-02-01T00:30:00Z,30.3085,-88.1395,2.383,5.11,1111122 
DISL,ioos:station:DISL:CATA:1,2010-02-01T01:00:00Z,30.3085,-88.1395,2.415,4.9,1111122 
DISL,ioos:station:DISL:CATA:1,2010-02-01T01:30:00Z,30.3085,-88.1395,2.433,4.95,1111122 
DISL,ioos:station:DISL:CATA:1,2010-02-01T02:00:00Z,30.3085,-88.1395,2.45,4.95,1111122 
DISL,ioos:station:DISL:CATA:1,2010-02-01T02:30:00Z,30.3085,-88.1395,2.468,4.94,1111122 
DISL,ioos:station:DISL:CATA:1,2010-02-01T03:00:00Z,30.3085,-88.1395,2.497,5.21,1111122 
DISL,ioos:station:DISL:CATA:1,2010-02-01T03:30:00Z,30.3085,-88.1395,2.502,5.13,1111122 
DISL,ioos:station:DISL:CATA:1,2010-02-01T04:00:00Z,30.3085,-88.1395,2.499,5.15,1111122 
DISL,ioos:station:DISL:CATA:1,2010-02-01T04:30:00Z,30.3085,-88.1395,2.513,4.63,1111122 
DISL,ioos:station:DISL:CATA:1,2010-02-01T05:00:00Z,30.3085,-88.1395,2.515,4.01,1111122 
DISL,ioos:station:DISL:CATA:1,2010-02-01T05:30:00Z,30.3085,-88.1395,2.509,3.65,1111122 
DISL,ioos:station:DISL:CATA:1,2010-02-01T06:00:00Z,30.3085,-88.1395,2.5,3.5,1111122 
DISL,ioos:station:DISL:CATA:1,2010-02-01T06:30:00Z,30.3085,-88.1395,2.484,3.53,1111122 
DISL,ioos:station:DISL:CATA:1,2010-02-01T07:00:00Z,30.3085,-88.1395,2.485,3.71,1111122 
DISL,ioos:station:DISL:CATA:1,2010-02-01T07:30:00Z,30.3085,-88.1395,2.475,3.68,1111122 
DISL,ioos:station:DISL:CATA:1,2010-02-01T08:00:00Z,30.3085,-88.1395,2.466,3.55,1111122 
DISL,ioos:station:DISL:CATA:1,2010-02-01T08:30:00Z,30.3085,-88.1395,2.429,3.45,1111122 
DISL,ioos:station:DISL:CATA:1,2010-02-01T09:00:00Z,30.3085,-88.1395,2.407,3.45,1111122 
DISL,ioos:station:DISL:CATA:1,2010-02-01T09:30:00Z,30.3085,-88.1395,2.388,3.51,1111122 
DISL,ioos:station:DISL:CATA:1,2010-02-01T10:00:00Z,30.3085,-88.1395,2.37,3.62,1111122 
DISL,ioos:station:DISL:CATA:1,2010-02-01T10:30:00Z,30.3085,-88.1395,2.331,3.58,1111122 
DISL,ioos:station:DISL:CATA:1,2010-02-01T11:00:00Z,30.3085,-88.1395,2.277,3.36,1111122 
DISL,ioos:station:DISL:CATA:1,2010-02-01T11:30:00Z,30.3085,-88.1395,2.245,3.25,1111122 
DISL,ioos:station:DISL:CATA:1,2010-02-01T12:00:00Z,30.3085,-88.1395,2.229,3.18,1111122 
DISL,ioos:station:DISL:CATA:1,2010-02-01T12:30:00Z,30.3085,-88.1395,2.222,3.03,1111122 
DISL,ioos:station:DISL:CATA:1,2010-02-01T13:00:00Z,30.3085,-88.1395,2.227,2.9,1111122 
DISL,ioos:station:DISL:CATA:1,2010-02-01T13:30:00Z,30.3085,-88.1395,2.212,3.04,1111122 
DISL,ioos:station:DISL:CATA:1,2010-02-01T14:00:00Z,30.3085,-88.1395,2.208,3.26,1111122 
DISL,ioos:station:DISL:CATA:1,2010-02-01T14:30:00Z,30.3085,-88.1395,2.22,3.24,1111122 
DISL,ioos:station:DISL:CATA:1,2010-02-01T15:00:00Z,30.3085,-88.1395,2.224,3.24,1111122 
DISL,ioos:station:DISL:CATA:1,2010-02-01T15:30:00Z,30.3085,-88.1395,2.24,3.21,1111122 
DISL,ioos:station:DISL:CATA:1,2010-02-01T16:00:00Z,30.3085,-88.1395,2.249,3.15,1111122 
DISL,ioos:station:DISL:CATA:1,2010-02-01T16:30:00Z,30.3085,-88.1395,2.256,3.12,1111122 
DISL,ioos:station:DISL:CATA:1,2010-02-01T17:00:00Z,30.3085,-88.1395,2.227,3.16,1111122 
DISL,ioos:station:DISL:CATA:1,2010-02-01T17:30:00Z,30.3085,-88.1395,2.236,3.26,1111122 
DISL,ioos:station:DISL:CATA:1,2010-02-01T18:00:00Z,30.3085,-88.1395,2.236,3.38,1111122 
DISL,ioos:station:DISL:CATA:1,2010-02-01T18:30:00Z,30.3085,-88.1395,2.249,3.34,1111122 
DISL,ioos:station:DISL:CATA:1,2010-02-01T19:00:00Z,30.3085,-88.1395,2.272,3.35,1111122 
DISL,ioos:station:DISL:CATA:1,2010-02-01T19:30:00Z,30.3085,-88.1395,2.28,3.4,1111122 
DISL,ioos:station:DISL:CATA:1,2010-02-01T20:00:00Z,30.3085,-88.1395,2.337,3.43,1111122 
DISL,ioos:station:DISL:CATA:1,2010-02-01T20:30:00Z,30.3085,-88.1395,2.36,3.46,1111122 
DISL,ioos:station:DISL:CATA:1,2010-02-01T21:00:00Z,30.3085,-88.1395,2.37,3.4,1111122 
DISL,ioos:station:DISL:CATA:1,2010-02-01T21:30:00Z,30.3085,-88.1395,2.377,3.31,1111122 
DISL,ioos:station:DISL:CATA:1,2010-02-01T22:00:00Z,30.3085,-88.1395,2.386,3.24,1111122 
DISL,ioos:station:DISL:CATA:1,2010-02-01T22:30:00Z,30.3085,-88.1395,2.382,3.26,1111122 
DISL,ioos:station:DISL:CATA:1,2010-02-01T23:00:00Z,30.3085,-88.1395,2.383,3.21,1111122 
DISL,ioos:station:DISL:CATA:1,2010-02-01T23:30:00Z,30.3085,-88.1395,2.387,3.18,1111122 
DISL,ioos:station:DISL:CATA:1,2010-02-02T00:00:00Z,30.3085,-88.1395,2.374,3.14,1111122 
DISL,ioos:station:DISL:CATA:1,2010-02-02T00:30:00Z,30.3085,-88.1395,2.379,3.46,1111122 
DISL,ioos:station:DISL:CATA:1,2010-02-02T01:00:00Z,30.3085,-88.1395,2.399,3.12,1111122 
DISL,ioos:station:DISL:CATA:1,2010-02-02T01:30:00Z,30.3085,-88.1395,2.419,3.19,1111122 
DISL,ioos:station:DISL:CATA:1,2010-02-02T02:00:00Z,30.3085,-88.1395,2.431,3.25,1111122 
DISL,ioos:station:DISL:CATA:1,2010-02-02T02:30:00Z,30.3085,-88.1395,2.447,3.28,1111122 
DISL,ioos:station:DISL:CATA:1,2010-02-02T03:00:00Z,30.3085,-88.1395,2.482,3.29,1111122 
DISL,ioos:station:DISL:CATA:1,2010-02-02T03:30:00Z,30.3085,-88.1395,2.471,3.3,1111122 
DISL,ioos:station:DISL:CATA:1,2010-02-02T04:00:00Z,30.3085,-88.1395,2.463,3.3,1111122 
DISL,ioos:station:DISL:CATA:1,2010-02-02T04:30:00Z,30.3085,-88.1395,2.462,3.31,1111122 
DISL,ioos:station:DISL:CATA:1,2010-02-02T05:00:00Z,30.3085,-88.1395,2.471,3.28,1111122 
DISL,ioos:station:DISL:CATA:1,2010-02-02T05:30:00Z,30.3085,-88.1395,2.478,3.27,1111122 
DISL,ioos:station:DISL:CATA:1,2010-02-02T06:00:00Z,30.3085,-88.1395,2.463,3.25,1111122 
DISL,ioos:station:DISL:CATA:1,2010-02-02T06:30:00Z,30.3085,-88.1395,2.442,3.23,1111122 
DISL,ioos:station:DISL:CATA:1,2010-02-02T07:00:00Z,30.3085,-88.1395,2.449,3.21,1111122 
DISL,ioos:station:DISL:CATA:1,2010-02-02T07:30:00Z,30.3085,-88.1395,2.46,3.2,1111122 
DISL,ioos:station:DISL:CATA:1,2010-02-02T08:00:00Z,30.3085,-88.1395,2.444,3.1,1111122 
DISL,ioos:station:DISL:CATA:1,2010-02-02T08:30:00Z,30.3085,-88.1395,2.422,3.1,1111122 
DISL,ioos:station:DISL:CATA:1,2010-02-02T09:00:00Z,30.3085,-88.1395,2.427,3.15,1111122 
DISL,ioos:station:DISL:CATA:1,2010-02-02T09:30:00Z,30.3085,-88.1395,2.409,3.12,1111122 
DISL,ioos:station:DISL:CATA:1,2010-02-02T10:00:00Z,30.3085,-88.1395,2.379,3.08,1111122 
DISL,ioos:station:DISL:CATA:1,2010-02-02T10:30:00Z,30.3085,-88.1395,2.351,3.05,1111122 
DISL,ioos:station:DISL:CATA:1,2010-02-02T11:00:00Z,30.3085,-88.1395,2.322,3.0,1111122 
DISL,ioos:station:DISL:CATA:1,2010-02-02T11:30:00Z,30.3085,-88.1395,2.311,2.95,1111122 
DISL,ioos:station:DISL:CATA:1,2010-02-02T12:00:00Z,30.3085,-88.1395,2.295,2.89,1111122 
DISL,ioos:station:DISL:CATA:1,2010-02-02T12:30:00Z,30.3085,-88.1395,2.263,2.91,1111122 
DISL,ioos:station:DISL:CATA:1,2010-02-02T13:00:00Z,30.3085,-88.1395,2.234,2.95,1111122 
DISL,ioos:station:DISL:CATA:1,2010-02-02T13:30:00Z,30.3085,-88.1395,2.252,2.9,1111122 
DISL,ioos:station:DISL:CATA:1,2010-02-02T14:00:00Z,30.3085,-88.1395,2.242,2.84,1111122 
DISL,ioos:station:DISL:CATA:1,2010-02-02T14:30:00Z,30.3085,-88.1395,2.239,2.79,1111122 
DISL,ioos:station:DISL:CATA:1,2010-02-02T15:00:00Z,30.3085,-88.1395,2.246,2.83,1111122 
DISL,ioos:station:DISL:CATA:1,2010-02-02T15:30:00Z,30.3085,-88.1395,2.277,2.85,1111122 
DISL,ioos:station:DISL:CATA:1,2010-02-02T16:00:00Z,30.3085,-88.1395,2.283,2.87,1111122 
DISL,ioos:station:DISL:CATA:1,2010-02-02T16:30:00Z,30.3085,-88.1395,2.283,2.94,1111122 
DISL,ioos:station:DISL:CATA:1,2010-02-02T17:00:00Z,30.3085,-88.1395,2.318,3.0,1111122 
DISL,ioos:station:DISL:CATA:1,2010-02-02T17:30:00Z,30.3085,-88.1395,2.333,3.06,1111122 
DISL,ioos:station:DISL:CATA:1,2010-02-02T18:00:00Z,30.3085,-88.1395,2.317,3.06,1111122 
DISL,ioos:station:DISL:CATA:1,2010-02-02T18:30:00Z,30.3085,-88.1395,2.306,3.09,1111122 
DISL,ioos:station:DISL:CATA:1,2010-02-02T19:00:00Z,30.3085,-88.1395,2.31,3.11,1111122 
DISL,ioos:station:DISL:CATA:1,2010-02-02T19:30:00Z,30.3085,-88.1395,2.31,3.11,1111122 
DISL,ioos:station:DISL:CATA:1,2010-02-02T20:00:00Z,30.3085,-88.1395,2.326,3.17,1111122 
DISL,ioos:station:DISL:CATA:1,2010-02-02T20:30:00Z,30.3085,-88.1395,2.33,3.14,1111122 
DISL,ioos:station:DISL:CATA:1,2010-02-02T21:00:00Z,30.3085,-88.1395,2.33,3.1,1111122 
DISL,ioos:station:DISL:CATA:1,2010-02-02T21:30:00Z,30.3085,-88.1395,2.314,3.16,1111122 
DISL,ioos:station:DISL:CATA:1,2010-02-02T22:00:00Z,30.3085,-88.1395,2.333,3.16,1111122 
DISL,ioos:station:DISL:CATA:1,2010-02-02T22:30:00Z,30.3085,-88.1395,2.332,3.13,1111122 
DISL,ioos:station:DISL:CATA:1,2010-02-02T23:00:00Z,30.3085,-88.1395,2.336,3.1,1111122 
DISL,ioos:station:DISL:CATA:1,2010-02-02T23:30:00Z,30.3085,-88.1395,2.332,3.07,1111122 
DISL,ioos:station:DISL:CATA:1,2010-02-03T00:00:00Z,30.3085,-88.1395,2.32,3.02,1111122 
DISL,ioos:station:DISL:CATA:1,2010-02-03T00:30:00Z,30.3085,-88.1395,2.306,2.96,1111122 
DISL,ioos:station:DISL:CATA:1,2010-02-03T01:00:00Z,30.3085,-88.1395,2.279,2.99,1111122 
DISL,ioos:station:DISL:CATA:1,2010-02-03T01:30:00Z,30.3085,-88.1395,2.278,3.04,1111122 
DISL,ioos:station:DISL:CATA:1,2010-02-03T02:00:00Z,30.3085,-88.1395,2.282,3.08,1111122 
DISL,ioos:station:DISL:CATA:1,2010-02-03T02:30:00Z,30.3085,-88.1395,2.264,3.05,1111122 
DISL,ioos:station:DISL:CATA:1,2010-02-03T03:00:00Z,30.3085,-88.1395,2.275,3.1,1111122 
DISL,ioos:station:DISL:CATA:1,2010-02-03T03:30:00Z,30.3085,-88.1395,2.281,3.07,1111122 
DISL,ioos:station:DISL:CATA:1,2010-02-03T04:00:00Z,30.3085,-88.1395,2.29,2.96,1111122 
DISL,ioos:station:DISL:CATA:1,2010-02-03T04:30:00Z,30.3085,-88.1395,2.288,2.71,1111122 
DISL,ioos:station:DISL:CATA:1,2010-02-03T05:00:00Z,30.3085,-88.1395,2.281,2.69,1111122 
DISL,ioos:station:DISL:CATA:1,2010-02-03T05:30:00Z,30.3085,-88.1395,2.273,2.76,1111122 
DISL,ioos:station:DISL:CATA:1,2010-02-03T06:00:00Z,30.3085,-88.1395,2.278,2.71,1111122 
DISL,ioos:station:DISL:CATA:1,2010-02-03T06:30:00Z,30.3085,-88.1395,2.263,2.43,1111122 
DISL,ioos:station:DISL:CATA:1,2010-02-03T07:00:00Z,30.3085,-88.1395,2.248,2.37,1111122 
DISL,ioos:station:DISL:CATA:1,2010-02-03T07:30:00Z,30.3085,-88.1395,2.252,2.33,1111122 
DISL,ioos:station:DISL:CATA:1,2010-02-03T08:00:00Z,30.3085,-88.1395,2.258,2.36,1111122 
DISL,ioos:station:DISL:CATA:1,2010-02-03T08:30:00Z,30.3085,-88.1395,2.26,2.25,1111122 
DISL,ioos:station:DISL:CATA:1,2010-02-03T09:00:00Z,30.3085,-88.1395,2.257,2.21,1111122 
DISL,ioos:station:DISL:CATA:1,2010-02-03T09:30:00Z,30.3085,-88.1395,2.263,2.21,1111122 
DISL,ioos:station:DISL:CATA:1,2010-02-03T10:00:00Z,30.3085,-88.1395,2.259,2.19,1111122 
DISL,ioos:station:DISL:CATA:1,2010-02-03T10:30:00Z,30.3085,-88.1395,2.256,2.16,1111122 
DISL,ioos:station:DISL:CATA:1,2010-02-03T11:00:00Z,30.3085,-88.1395,2.243,2.11,1111122 
DISL,ioos:station:DISL:CATA:1,2010-02-03T11:30:00Z,30.3085,-88.1395,2.22,2.0,1111122 
DISL,ioos:station:DISL:CATA:1,2010-02-03T12:00:00Z,30.3085,-88.1395,2.214,1.97,1111122 
DISL,ioos:station:DISL:CATA:1,2010-02-03T12:30:00Z,30.3085,-88.1395,2.215,1.94,1111122 
DISL,ioos:station:DISL:CATA:1,2010-02-03T13:00:00Z,30.3085,-88.1395,2.219,1.85,1111122 
DISL,ioos:station:DISL:CATA:1,2010-02-03T13:30:00Z,30.3085,-88.1395,2.252,1.83,1111122 
DISL,ioos:station:DISL:CATA:1,2010-02-03T14:00:00Z,30.3085,-88.1395,2.287,1.8,1111122 
DISL,ioos:station:DISL:CATA:1,2010-02-03T14:30:00Z,30.3085,-88.1395,2.313,1.74,1111122 
DISL,ioos:station:DISL:CATA:1,2010-02-03T15:00:00Z,30.3085,-88.1395,2.337,1.74,1111122 
DISL,ioos:station:DISL:CATA:1,2010-02-03T15:30:00Z,30.3085,-88.1395,2.358,1.73,1111122 
DISL,ioos:station:DISL:CATA:1,2010-02-03T16:00:00Z,30.3085,-88.1395,2.396,1.7,1111122 
DISL,ioos:station:DISL:CATA:1,2010-02-03T16:30:00Z,30.3085,-88.1395,2.406,1.69,1111122 
DISL,ioos:station:DISL:CATA:1,2010-02-03T17:00:00Z,30.3085,-88.1395,2.397,1.67,1111122 
DISL,ioos:station:DISL:CATA:1,2010-02-03T17:30:00Z,30.3085,-88.1395,2.395,1.69,1111122 
DISL,ioos:station:DISL:CATA:1,2010-02-03T18:00:00Z,30.3085,-88.1395,2.422,1.69,1111122 
DISL,ioos:station:DISL:CATA:1,2010-02-03T18:30:00Z,30.3085,-88.1395,2.422,1.72,1111122 
DISL,ioos:station:DISL:CATA:1,2010-02-03T19:00:00Z,30.3085,-88.1395,2.401,1.75,1111122 
DISL,ioos:station:DISL:CATA:1,2010-02-03T19:30:00Z,30.3085,-88.1395,2.409,1.66,1111122 
DISL,ioos:station:DISL:CATA:1,2010-02-03T20:00:00Z,30.3085,-88.1395,2.45,1.67,1111122 
DISL,ioos:station:DISL:CATA:1,2010-02-03T20:30:00Z,30.3085,-88.1395,2.455,1.66,1111122 
DISL,ioos:station:DISL:CATA:1,2010-02-03T21:00:00Z,30.3085,-88.1395,2.462,1.65,1111122 
DISL,ioos:station:DISL:CATA:1,2010-02-03T21:30:00Z,30.3085,-88.1395,2.485,1.63,1111122 
DISL,ioos:station:DISL:CATA:1,2010-02-03T22:00:00Z,30.3085,-88.1395,2.473,1.6,1111122 
DISL,ioos:station:DISL:CATA:1,2010-02-03T22:30:00Z,30.3085,-88.1395,2.45,1.71,1111122 
DISL,ioos:station:DISL:CATA:1,2010-02-03T23:00:00Z,30.3085,-88.1395,2.428,1.75,1111122 
DISL,ioos:station:DISL:CATA:1,2010-02-03T23:30:00Z,30.3085,-88.1395,2.386,1.74,1111122 
DISL,ioos:station:DISL:CATA:1,2010-02-04T00:00:00Z,30.3085,-88.1395,2.346,1.54,1111122 
DISL,ioos:station:DISL:CATA:1,2010-02-04T00:30:00Z,30.3085,-88.1395,2.313,1.41,1111122 
DISL,ioos:station:DISL:CATA:1,2010-02-04T01:00:00Z,30.3085,-88.1395,2.282,1.4,1111122 
DISL,ioos:station:DISL:CATA:1,2010-02-04T01:30:00Z,30.3085,-88.1395,2.266,1.37,1111122 
DISL,ioos:station:DISL:CATA:1,2010-02-04T02:00:00Z,30.3085,-88.1395,2.248,1.36,1111122 
DISL,ioos:station:DISL:CATA:1,2010-02-04T02:30:00Z,30.3085,-88.1395,2.232,1.4,1111122 
DISL,ioos:station:DISL:CATA:1,2010-02-04T03:00:00Z,30.3085,-88.1395,2.239,1.46,1111122 
DISL,ioos:station:DISL:CATA:1,2010-02-04T03:30:00Z,30.3085,-88.1395,2.255,1.49,1111122 
DISL,ioos:station:DISL:CATA:1,2010-02-04T04:00:00Z,30.3085,-88.1395,2.25,1.46,1111122 
DISL,ioos:station:DISL:CATA:1,2010-02-04T04:30:00Z,30.3085,-88.1395,2.232,1.46,1111122 
DISL,ioos:station:DISL:CATA:1,2010-02-04T05:00:00Z,30.3085,-88.1395,2.233,1.47,1111122 
DISL,ioos:station:DISL:CATA:1,2010-02-04T05:30:00Z,30.3085,-88.1395,2.207,1.47,1111122 
DISL,ioos:station:DISL:CATA:1,2010-02-04T06:00:00Z,30.3085,-88.1395,2.183,1.47,1111122 
DISL,ioos:station:DISL:CATA:1,2010-02-04T06:30:00Z,30.3085,-88.1395,2.156,1.46,1111122 
DISL,ioos:station:DISL:CATA:1,2010-02-04T07:00:00Z,30.3085,-88.1395,2.141,1.46,1111122 
DISL,ioos:station:DISL:CATA:1,2010-02-04T07:30:00Z,30.3085,-88.1395,2.14,1.47,1111122 
DISL,ioos:station:DISL:CATA:1,2010-02-04T08:00:00Z,30.3085,-88.1395,2.13,1.46,1111122 
DISL,ioos:station:DISL:CATA:1,2010-02-04T08:30:00Z,30.3085,-88.1395,2.128,1.47,1111122 
DISL,ioos:station:DISL:CATA:1,2010-02-04T09:00:00Z,30.3085,-88.1395,2.118,1.46,1111122 
DISL,ioos:station:DISL:CATA:1,2010-02-04T09:30:00Z,30.3085,-88.1395,2.122,1.46,1111122 
DISL,ioos:station:DISL:CATA:1,2010-02-04T10:00:00Z,30.3085,-88.1395,2.131,1.51,1111122 
DISL,ioos:station:DISL:CATA:1,2010-02-04T10:30:00Z,30.3085,-88.1395,2.148,1.6,1111122 
DISL,ioos:station:DISL:CATA:1,2010-02-04T11:00:00Z,30.3085,-88.1395,2.15,1.59,1111122 
DISL,ioos:station:DISL:CATA:1,2010-02-04T11:30:00Z,30.3085,-88.1395,2.183,1.56,1111122 
DISL,ioos:station:DISL:CATA:1,2010-02-04T12:00:00Z,30.3085,-88.1395,2.211,1.54,1111122 
DISL,ioos:station:DISL:CATA:1,2010-02-04T12:30:00Z,30.3085,-88.1395,2.214,1.53,1111122 
DISL,ioos:station:DISL:CATA:1,2010-02-04T13:00:00Z,30.3085,-88.1395,2.236,1.52,1111122 
DISL,ioos:station:DISL:CATA:1,2010-02-04T13:30:00Z,30.3085,-88.1395,2.286,1.51,1111122 
DISL,ioos:station:DISL:CATA:1,2010-02-04T14:00:00Z,30.3085,-88.1395,2.311,1.51,1111122 
DISL,ioos:station:DISL:CATA:1,2010-02-04T14:30:00Z,30.3085,-88.1395,2.326,1.51,1111122 
DISL,ioos:station:DISL:CATA:1,2010-02-04T15:00:00Z,30.3085,-88.1395,2.34,1.53,1111122 
DISL,ioos:station:DISL:CATA:1,2010-02-04T15:30:00Z,30.3085,-88.1395,2.387,1.54,1111122 
DISL,ioos:station:DISL:CATA:1,2010-02-04T16:00:00Z,30.3085,-88.1395,2.423,1.56,1111122 
DISL,ioos:station:DISL:CATA:1,2010-02-04T16:30:00Z,30.3085,-88.1395,2.451,1.59,1111122 
DISL,ioos:station:DISL:CATA:1,2010-02-04T17:00:00Z,30.3085,-88.1395,2.484,1.62,1111122 
DISL,ioos:station:DISL:CATA:1,2010-02-04T17:30:00Z,30.3085,-88.1395,2.506,1.63,1111122 
DISL,ioos:station:DISL:CATA:1,2010-02-04T18:00:00Z,30.3085,-88.1395,2.54,1.63,1111122 
DISL,ioos:station:DISL:CATA:1,2010-02-04T18:30:00Z,30.3085,-88.1395,2.572,1.63,1111122 
DISL,ioos:station:DISL:CATA:1,2010-02-04T19:00:00Z,30.3085,-88.1395,2.566,1.61,1111122 
DISL,ioos:station:DISL:CATA:1,2010-02-04T19:30:00Z,30.3085,-88.1395,2.556,1.61,1111122 
DISL,ioos:station:DISL:CATA:1,2010-02-04T20:00:00Z,30.3085,-88.1395,2.564,3.55,1111122 
DISL,ioos:station:DISL:CATA:1,2010-02-04T20:30:00Z,30.3085,-88.1395,2.515,2.05,1111122 
DISL,ioos:station:DISL:CATA:1,2010-02-04T21:00:00Z,30.3085,-88.1395,2.465,1.7,1111122 
DISL,ioos:station:DISL:CATA:1,2010-02-04T21:30:00Z,30.3085,-88.1395,2.48,1.77,1111122 
DISL,ioos:station:DISL:CATA:1,2010-02-04T22:00:00Z,30.3085,-88.1395,2.492,1.78,1111122 
DISL,ioos:station:DISL:CATA:1,2010-02-04T22:30:00Z,30.3085,-88.1395,2.494,1.83,1111122 
DISL,ioos:station:DISL:CATA:1,2010-02-04T23:00:00Z,30.3085,-88.1395,2.495,1.67,1111122 
DISL,ioos:station:DISL:CATA:1,2010-02-04T23:30:00Z,30.3085,-88.1395,2.487,1.74,1111122 
DISL,ioos:station:DISL:CATA:1,2010-02-05T00:00:00Z,30.3085,-88.1395,2.508,1.68,1111122 
DISL,ioos:station:DISL:CATA:1,2010-02-05T00:30:00Z,30.3085,-88.1395,2.503,1.65,1111122 
DISL,ioos:station:DISL:CATA:1,2010-02-05T01:00:00Z,30.3085,-88.1395,2.521,1.55,1111122 
DISL,ioos:station:DISL:CATA:1,2010-02-05T01:30:00Z,30.3085,-88.1395,2.529,1.5,1111122 
DISL,ioos:station:DISL:CATA:1,2010-02-05T02:00:00Z,30.3085,-88.1395,2.556,1.53,1111122 
DISL,ioos:station:DISL:CATA:1,2010-02-05T02:30:00Z,30.3085,-88.1395,2.529,1.64,1111122 
DISL,ioos:station:DISL:CATA:1,2010-02-05T03:00:00Z,30.3085,-88.1395,2.541,1.8,1111122 
DISL,ioos:station:DISL:CATA:1,2010-02-05T03:30:00Z,30.3085,-88.1395,2.545,1.87,1111122 
DISL,ioos:station:DISL:CATA:1,2010-02-05T04:00:00Z,30.3085,-88.1395,2.627,1.93,1111122 
DISL,ioos:station:DISL:CATA:1,2010-02-05T04:30:00Z,30.3085,-88.1395,2.658,2.66,1111122 
DISL,ioos:station:DISL:CATA:1,2010-02-05T05:00:00Z,30.3085,-88.1395,2.614,1.82,1111122 
DISL,ioos:station:DISL:CATA:1,2010-02-05T05:30:00Z,30.3085,-88.1395,2.498,1.88,1111122 
DISL,ioos:station:DISL:CATA:1,2010-02-05T06:00:00Z,30.3085,-88.1395,2.49,1.72,1111122 
DISL,ioos:station:DISL:CATA:1,2010-02-05T06:30:00Z,30.3085,-88.1395,2.462,1.99,1111122 
DISL,ioos:station:DISL:CATA:1,2010-02-05T07:00:00Z,30.3085,-88.1395,2.474,2.51,1111122 
DISL,ioos:station:DISL:CATA:1,2010-02-05T07:30:00Z,30.3085,-88.1395,2.457,2.17,1111122 
DISL,ioos:station:DISL:CATA:1,2010-02-05T08:00:00Z,30.3085,-88.1395,2.392,1.96,1111122 
DISL,ioos:station:DISL:CATA:1,2010-02-05T08:30:00Z,30.3085,-88.1395,2.329,1.82,1111122 
DISL,ioos:station:DISL:CATA:1,2010-02-05T09:00:00Z,30.3085,-88.1395,2.352,1.74,1111122 
DISL,ioos:station:DISL:CATA:1,2010-02-05T09:30:00Z,30.3085,-88.1395,2.351,1.78,1111122 
DISL,ioos:station:DISL:CATA:1,2010-02-05T10:00:00Z,30.3085,-88.1395,2.391,1.8,1111122 
DISL,ioos:station:DISL:CATA:1,2010-02-05T10:30:00Z,30.3085,-88.1395,2.408,1.86,1111122 
DISL,ioos:station:DISL:CATA:1,2010-02-05T11:00:00Z,30.3085,-88.1395,2.399,1.82,1111122 
DISL,ioos:station:DISL:CATA:1,2010-02-05T11:30:00Z,30.3085,-88.1395,2.396,2.34,1111122 
DISL,ioos:station:DISL:CATA:1,2010-02-05T12:00:00Z,30.3085,-88.1395,2.402,3.55,1111122 
DISL,ioos:station:DISL:CATA:1,2010-02-05T12:30:00Z,30.3085,-88.1395,2.418,5.83,1111122 
DISL,ioos:station:DISL:CATA:1,2010-02-05T13:00:00Z,30.3085,-88.1395,2.417,6.33,1111122 
DISL,ioos:station:DISL:CATA:1,2010-02-05T13:30:00Z,30.3085,-88.1395,2.428,6.91,1111122 
DISL,ioos:station:DISL:CATA:1,2010-02-05T14:00:00Z,30.3085,-88.1395,2.43,7.36,1111122 
DISL,ioos:station:DISL:CATA:1,2010-02-05T14:30:00Z,30.3085,-88.1395,2.473,7.65,1111122 
DISL,ioos:station:DISL:CATA:1,2010-02-05T15:00:00Z,30.3085,-88.1395,2.467,7.59,1111122 
DISL,ioos:station:DISL:CATA:1,2010-02-05T15:30:00Z,30.3085,-88.1395,2.479,4.64,1111122 
DISL,ioos:station:DISL:CATA:1,2010-02-05T16:00:00Z,30.3085,-88.1395,2.495,3.74,1111122 
DISL,ioos:station:DISL:CATA:1,2010-02-05T16:30:00Z,30.3085,-88.1395,2.533,2.48,1111122 
DISL,ioos:station:DISL:CATA:1,2010-02-05T17:00:00Z,30.3085,-88.1395,2.572,2.17,1111122 
DISL,ioos:station:DISL:CATA:1,2010-02-05T17:30:00Z,30.3085,-88.1395,2.584,1.89,1111122 
DISL,ioos:station:DISL:CATA:1,2010-02-05T18:00:00Z,30.3085,-88.1395,2.612,1.92,1111122 
DISL,ioos:station:DISL:CATA:1,2010-02-05T18:30:00Z,30.3085,-88.1395,2.616,1.89,1111122 
DISL,ioos:station:DISL:CATA:1,2010-02-05T19:00:00Z,30.3085,-88.1395,2.615,1.79,1111122 
DISL,ioos:station:DISL:CATA:1,2010-02-05T19:30:00Z,30.3085,-88.1395,2.663,1.93,1111122 
DISL,ioos:station:DISL:CATA:1,2010-02-05T20:00:00Z,30.3085,-88.1395,2.685,2.72,1111122 
DISL,ioos:station:DISL:CATA:1,2010-02-05T20:30:00Z,30.3085,-88.1395,2.665,2.78,1111122 
DISL,ioos:station:DISL:CATA:1,2010-02-05T21:00:00Z,30.3085,-88.1395,2.675,2.87,1111122 
DISL,ioos:station:DISL:CATA:1,2010-02-05T21:30:00Z,30.3085,-88.1395,2.653,3.43,1111122 
DISL,ioos:station:DISL:CATA:1,2010-02-05T22:00:00Z,30.3085,-88.1395,2.627,3.71,1111122 
DISL,ioos:station:DISL:CATA:1,2010-02-05T22:30:00Z,30.3085,-88.1395,2.638,4.88,1111122 
DISL,ioos:station:DISL:CATA:1,2010-02-05T23:00:00Z,30.3085,-88.1395,2.624,6.1,1111122 
DISL,ioos:station:DISL:CATA:1,2010-02-05T23:30:00Z,30.3085,-88.1395,2.591,6.43,1111122 
DISL,ioos:station:DISL:CATA:1,2010-02-06T00:00:00Z,30.3085,-88.1395,2.564,6.35,1111122 
DISL,ioos:station:DISL:CATA:1,2010-02-06T00:30:00Z,30.3085,-88.1395,2.554,6.65,1111122 
DISL,ioos:station:DISL:CATA:1,2010-02-06T01:00:00Z,30.3085,-88.1395,2.541,6.95,1111122 
DISL,ioos:station:DISL:CATA:1,2010-02-06T01:30:00Z,30.3085,-88.1395,2.505,6.98,1111122 
DISL,ioos:station:DISL:CATA:1,2010-02-06T02:00:00Z,30.3085,-88.1395,2.504,6.97,1111122 
DISL,ioos:station:DISL:CATA:1,2010-02-06T02:30:00Z,30.3085,-88.1395,2.478,6.9,1111122 
DISL,ioos:station:DISL:CATA:1,2010-02-06T03:00:00Z,30.3085,-88.1395,2.444,6.81,1111122 
DISL,ioos:station:DISL:CATA:1,2010-02-06T03:30:00Z,30.3085,-88.1395,2.406,6.53,1111122 
DISL,ioos:station:DISL:CATA:1,2010-02-06T04:00:00Z,30.3085,-88.1395,2.367,6.53,1111122 
DISL,ioos:station:DISL:CATA:1,2010-02-06T04:30:00Z,30.3085,-88.1395,2.345,7.59,1111122 
DISL,ioos:station:DISL:CATA:1,2010-02-06T05:00:00Z,30.3085,-88.1395,2.328,8.31,1111122 
DISL,ioos:station:DISL:CATA:1,2010-02-06T05:30:00Z,30.3085,-88.1395,2.292,8.26,1111122 
DISL,ioos:station:DISL:CATA:1,2010-02-06T06:00:00Z,30.3085,-88.1395,2.239,8.2,1111122 
DISL,ioos:station:DISL:CATA:1,2010-02-06T06:30:00Z,30.3085,-88.1395,2.196,5.77,1111122 
DISL,ioos:station:DISL:CATA:1,2010-02-06T07:00:00Z,30.3085,-88.1395,2.172,6.64,1111122 
DISL,ioos:station:DISL:CATA:1,2010-02-06T07:30:00Z,30.3085,-88.1395,2.145,7.33,1111122 
DISL,ioos:station:DISL:CATA:1,2010-02-06T08:00:00Z,30.3085,-88.1395,2.124,7.19,1111122 
DISL,ioos:station:DISL:CATA:1,2010-02-06T08:30:00Z,30.3085,-88.1395,2.104,7.27,1111122 
DISL,ioos:station:DISL:CATA:1,2010-02-06T09:00:00Z,30.3085,-88.1395,2.074,8.18,1111122 
DISL,ioos:station:DISL:CATA:1,2010-02-06T09:30:00Z,30.3085,-88.1395,2.023,7.61,1111122 
DISL,ioos:station:DISL:CATA:1,2010-02-06T10:00:00Z,30.3085,-88.1395,1.993,6.35,1111122 
DISL,ioos:station:DISL:CATA:1,2010-02-06T10:30:00Z,30.3085,-88.1395,2.003,5.66,1111122 
DISL,ioos:station:DISL:CATA:1,2010-02-06T11:00:00Z,30.3085,-88.1395,2.019,5.92,1111122 
DISL,ioos:station:DISL:CATA:1,2010-02-06T11:30:00Z,30.3085,-88.1395,2.04,5.76,1111122 
DISL,ioos:station:DISL:CATA:1,2010-02-06T12:00:00Z,30.3085,-88.1395,2.06,5.86,1111122 
DISL,ioos:station:DISL:CATA:1,2010-02-06T12:30:00Z,30.3085,-88.1395,2.059,6.74,1111122 
DISL,ioos:station:DISL:CATA:1,2010-02-06T13:00:00Z,30.3085,-88.1395,2.092,5.97,1111122 
DISL,ioos:station:DISL:CATA:1,2010-02-06T13:30:00Z,30.3085,-88.1395,2.121,7.48,1111122 
DISL,ioos:station:DISL:CATA:1,2010-02-06T14:00:00Z,30.3085,-88.1395,2.136,7.78,1111122 
DISL,ioos:station:DISL:CATA:1,2010-02-06T14:30:00Z,30.3085,-88.1395,2.144,5.77,1111122 
DISL,ioos:station:DISL:CATA:1,2010-02-06T15:00:00Z,30.3085,-88.1395,2.176,4.46,1111122 
DISL,ioos:station:DISL:CATA:1,2010-02-06T15:30:00Z,30.3085,-88.1395,2.209,2.99,1111122 